Fargo, ND

11:11 AM CDT on October 19, 2019 (GMT -0500)
Hector International

Weather History for KFAR - August, 2019

Change the Weather History Date:

Saturday, August 10, 2019

  Actual Average Record
Temperature  
Mean Temperature 68 °F 71 °F  
Max Temperature 78 °F 83 °F 98 °F (1988)
Min Temperature 58 °F 59 °F 41 °F (1967)
Degree Days  
Heating Degree Days 0 1  
Month to date heating degree days 5 6  
Since 1 June heating degree days 69 95  
Since 1 July heating degree days 11 22  
Cooling Degree Days 3 6  
Month to date cooling degree days 60 66  
Year to date cooling degree days 438 406  
Since 1 June cooling degree days 428 375  
Growing Degree Days 18 (Base 50)    
Moisture  
Dew Point 62 °F    
Average Humidity 79    
Maximum Humidity 93    
Minimum Humidity 64    
Precipitation  
Precipitation 0.00 in 0.07 in 2.78 in (1974)
Month to date precipitation 0.97 0.71  
Year to date precipitation 17.31 14.18  
Snow  
Snow 0.00 in 0.00 in 0.00 in ()
Month to date snowfall 0.0 0.0  
Since 1 June snowfall 0.0 0.0  
Since 1 July snowfall 0.0 0.0  
Snow Depth 0.00 in    
Sea Level Pressure  
Sea Level Pressure 29.93 in    
Wind  
Wind Speed 6 mph (SSE)    
Max Wind Speed 16 mph    
Max Gust Speed 21 mph    
Visibility 10 miles    
Events      
T = Trace of Precipitation, MM = Missing Value Source: NWS Daily Summary

Daily Weather History Graph

Daily Weather History Graph

Search for Another Location

Airport or City:

Astronomy

Aug. 10, 2019 Rise Set
Actual Time 6:17 AM CDT 8:46 PM CDT
Civil Twilight 5:43 AM CDT 9:20 PM CDT
Nautical Twilight 5:01 AM CDT 10:02 PM CDT
Astronomical Twilight 4:11 AM CDT 10:51 PM CDT
Moon 5:37 PM CDT (8/10) 1:49 AM CDT (8/10)
Length of Visible Light 15h 36m
Length of Day
14h 28m
Waxing Gibbous, 79% of the Moon is Illuminated
Aug 10
Waxing Gibbous
Aug 15
Full
Aug 23
Last Quarter
Aug 30
New
Sep 5
First Quarter

Hourly Weather History & Observations

Time (CDT) Temp. Dew Point Humidity Pressure Visibility Wind Dir Wind Speed Gust Speed Precip Events Conditions
12:53 AM 62.1 °F 57.0 °F 84% 29.93 in 10.0 mi East 4.6 mph - N/A   Clear
1:53 AM 60.1 °F 57.0 °F 90% 29.93 in 10.0 mi East 4.6 mph - N/A   Clear
2:53 AM 59.0 °F 55.9 °F 90% 29.93 in 10.0 mi ESE 5.8 mph - N/A   Clear
3:53 AM 61.0 °F 55.9 °F 83% 29.91 in 10.0 mi SE 5.8 mph - N/A   Clear
4:53 AM 61.0 °F 55.9 °F 83% 29.91 in 10.0 mi SE 6.9 mph - N/A   Clear
5:53 AM 63.0 °F 57.0 °F 81% 29.91 in 10.0 mi SSE 6.9 mph - N/A   Clear
6:53 AM 63.0 °F 57.9 °F 84% 29.93 in 10.0 mi SSE 5.8 mph - N/A   Clear
7:53 AM 64.9 °F 60.1 °F 84% 29.95 in 10.0 mi South 3.5 mph - N/A   Clear
8:53 AM 68.0 °F 62.1 °F 81% 29.94 in 10.0 mi SSE 12.7 mph - N/A   Clear
9:53 AM 70.0 °F 63.0 °F 78% 29.95 in 10.0 mi SSE 8.1 mph - N/A   Clear
10:53 AM 72.0 °F 63.0 °F 73% 29.94 in 10.0 mi SSE 12.7 mph - N/A   Clear
11:53 AM 73.9 °F 63.0 °F 68% 29.94 in 10.0 mi South 11.5 mph - N/A   Scattered Clouds
12:53 PM 75.9 °F 63.0 °F 64% 29.94 in 10.0 mi SSE 10.4 mph - N/A   Mostly Cloudy
1:49 PM 77.0 °F 64.4 °F 65% 29.93 in 10.0 mi SSE 8.1 mph - N/A   Mostly Cloudy
1:53 PM 77.0 °F 64.9 °F 66% 29.93 in 10.0 mi South 6.9 mph - N/A   Mostly Cloudy
2:15 PM 75.0 °F 64.0 °F 69% 29.93 in 10.0 mi Variable 4.6 mph - N/A   Overcast
2:33 PM 75.9 °F 64.0 °F 67% 29.94 in 10.0 mi SSE 5.8 mph - N/A   Overcast
2:53 PM 75.9 °F 64.0 °F 67% 29.94 in 10.0 mi South 6.9 mph - N/A   Overcast
3:14 PM 75.9 °F 64.0 °F 67% 29.94 in 10.0 mi SSW 4.6 mph - N/A   Overcast
3:53 PM 75.9 °F 64.9 °F 69% 29.92 in 10.0 mi SSW 6.9 mph - N/A   Overcast
4:39 PM 77.0 °F 64.9 °F 66% 29.91 in 10.0 mi SW 6.9 mph - N/A   Mostly Cloudy
4:53 PM 77.0 °F 64.9 °F 66% 29.90 in 10.0 mi ESE 8.1 mph - N/A   Mostly Cloudy
5:08 PM 77.0 °F 64.9 °F 66% 29.90 in 10.0 mi ESE 6.9 mph - N/A   Mostly Cloudy
5:53 PM 77.0 °F 64.9 °F 66% 29.89 in 10.0 mi Variable 3.5 mph - N/A   Partly Cloudy
6:53 PM 75.9 °F 64.9 °F 69% 29.90 in 10.0 mi South 3.5 mph - N/A   Mostly Cloudy
7:53 PM 75.0 °F 66.0 °F 73% 29.90 in 10.0 mi NNW 3.5 mph - N/A   Mostly Cloudy
8:53 PM 72.0 °F 64.9 °F 78% 29.91 in 10.0 mi NW 4.6 mph - N/A   Scattered Clouds
9:53 PM 68.0 °F 64.0 °F 87% 29.93 in 10.0 mi NW 4.6 mph - N/A   Scattered Clouds
10:53 PM 66.0 °F 64.0 °F 93% 29.94 in 10.0 mi Calm Calm - N/A   Clear
11:53 PM 66.0 °F 63.0 °F 90% 29.95 in 10.0 mi NW 3.5 mph - N/A   Clear